TimeCDT,TemperatureF,Dew PointF,Humidity,Sea Level PressureIn,VisibilityMPH,Wind Direction,Wind SpeedMPH,Gust SpeedMPH,PrecipitationIn,Events,Conditions,WindDirDegrees,DateUTC
12:15 AM,51.8,48.2,88,30.16,10.0,NE,9.2,-,N/A,,Unknown,50,2013-09-15 05:15:00
12:35 AM,50.0,48.2,94,30.17,10.0,NE,10.4,18.4,N/A,,Unknown,50,2013-09-15 05:35:00
12:55 AM,50.0,48.2,94,30.18,10.0,NE,9.2,-,N/A,,Clear,40,2013-09-15 05:55:00
1:15 AM,50.0,48.2,94,30.18,10.0,ENE,12.7,18.4,N/A,,Clear,60,2013-09-15 06:15:00
1:35 AM,48.2,48.2,100,30.19,10.0,NE,10.4,18.4,N/A,,Clear,50,2013-09-15 06:35:00
1:55 AM,46.4,46.4,100,30.20,10.0,ENE,10.4,18.4,N/A,,Clear,60,2013-09-15 06:55:00
2:15 AM,46.4,46.4,100,30.20,10.0,NE,9.2,-,N/A,,Clear,50,2013-09-15 07:15:00
2:35 AM,46.4,46.4,100,30.21,10.0,NE,4.6,-,N/A,,Clear,40,2013-09-15 07:35:00
2:55 AM,44.6,44.6,100,30.21,10.0,ENE,5.8,-,N/A,,Clear,60,2013-09-15 07:55:00
3:15 AM,44.6,44.6,100,30.21,10.0,ENE,8.1,-,N/A,,Clear,70,2013-09-15 08:15:00
3:35 AM,44.6,44.6,100,30.22,10.0,ENE,6.9,-,N/A,,Clear,60,2013-09-15 08:35:00
3:55 AM,44.6,44.6,100,30.22,10.0,NE,5.8,-,N/A,,Clear,50,2013-09-15 08:55:00
4:15 AM,42.8,42.8,100,30.23,10.0,NE,5.8,-,N/A,,Clear,50,2013-09-15 09:15:00
4:35 AM,41.0,41.0,100,30.23,10.0,NE,6.9,-,N/A,,Clear,40,2013-09-15 09:35:00
4:55 AM,41.0,41.0,100,30.24,10.0,NE,5.8,-,N/A,,Clear,40,2013-09-15 09:55:00
5:15 AM,41.0,41.0,100,30.24,10.0,NE,6.9,-,N/A,,Clear,40,2013-09-15 10:15:00
5:35 AM,41.0,41.0,100,30.25,10.0,NE,6.9,-,N/A,,Unknown,50,2013-09-15 10:35:00
5:55 AM,41.0,41.0,100,30.26,10.0,NE,5.8,-,N/A,,Unknown,40,2013-09-15 10:55:00
6:15 AM,41.0,41.0,100,30.26,10.0,NE,4.6,-,N/A,,Clear,40,2013-09-15 11:15:00
6:35 AM,39.2,39.2,100,30.27,10.0,NE,4.6,-,N/A,,Clear,40,2013-09-15 11:35:00
6:55 AM,39.2,39.2,100,30.27,10.0,NE,5.8,-,N/A,,Clear,40,2013-09-15 11:55:00
7:15 AM,39.2,39.2,100,30.28,10.0,NE,5.8,-,N/A,,Clear,50,2013-09-15 12:15:00
7:35 AM,39.2,39.2,100,30.28,10.0,NE,5.8,-,N/A,,Clear,50,2013-09-15 12:35:00
7:55 AM,39.2,39.2,100,30.29,10.0,Calm,Calm,-,N/A,,Clear,0,2013-09-15 12:55:00
8:15 AM,41.0,41.0,100,30.30,10.0,ENE,3.5,-,N/A,,Clear,70,2013-09-15 13:15:00
8:35 AM,42.8,42.8,100,30.31,10.0,East,4.6,-,N/A,,Clear,80,2013-09-15 13:35:00
8:55 AM,44.6,44.6,100,30.31,10.0,East,5.8,-,N/A,,Clear,80,2013-09-15 13:55:00
9:15 AM,44.6,44.6,100,30.32,10.0,East,5.8,-,N/A,,Clear,90,2013-09-15 14:15:00
9:35 AM,46.4,46.4,100,30.33,10.0,ESE,8.1,-,N/A,,Clear,110,2013-09-15 14:35:00
9:55 AM,48.2,46.4,93,30.33,10.0,ESE,6.9,-,N/A,,Scattered Clouds,120,2013-09-15 14:55:00
10:15 AM,48.2,46.4,93,30.33,10.0,ESE,8.1,-,N/A,,Overcast,110,2013-09-15 15:15:00
10:35 AM,48.2,46.4,93,30.34,10.0,SE,6.9,-,N/A,,Overcast,130,2013-09-15 15:35:00
10:55 AM,48.2,46.4,93,30.34,10.0,East,6.9,-,N/A,,Overcast,90,2013-09-15 15:55:00
11:15 AM,50.0,46.4,87,30.35,10.0,ESE,6.9,-,N/A,,Overcast,120,2013-09-15 16:15:00
11:35 AM,50.0,46.4,87,30.34,10.0,East,5.8,-,N/A,,Mostly Cloudy,90,2013-09-15 16:35:00
11:55 AM,53.6,44.6,72,30.34,10.0,ESE,5.8,-,N/A,,Mostly Cloudy,110,2013-09-15 16:55:00
12:15 PM,53.6,44.6,72,30.34,10.0,SE,6.9,-,N/A,,Partly Cloudy,130,2013-09-15 17:15:00
12:35 PM,53.6,44.6,72,30.34,10.0,ESE,4.6,-,N/A,,Clear,120,2013-09-15 17:35:00
12:55 PM,55.4,44.6,67,30.34,10.0,East,5.8,-,N/A,,Clear,100,2013-09-15 17:55:00
1:15 PM,55.4,44.6,67,30.33,10.0,ESE,9.2,-,N/A,,Clear,120,2013-09-15 18:15:00
1:35 PM,57.2,44.6,63,30.33,10.0,ESE,5.8,-,N/A,,Clear,120,2013-09-15 18:35:00
1:55 PM,57.2,44.6,63,30.33,10.0,ESE,8.1,-,N/A,,Clear,120,2013-09-15 18:55:00
2:15 PM,59.0,42.8,55,30.33,10.0,SE,6.9,-,N/A,,Clear,140,2013-09-15 19:15:00
2:35 PM,59.0,42.8,55,30.33,10.0,East,10.4,-,N/A,,Clear,100,2013-09-15 19:35:00
2:55 PM,59.0,41.0,51,30.32,10.0,ESE,10.4,-,N/A,,Clear,110,2013-09-15 19:55:00
3:15 PM,60.8,41.0,48,30.31,10.0,ESE,9.2,-,N/A,,Clear,110,2013-09-15 20:15:00
3:35 PM,62.6,41.0,45,30.30,10.0,SE,9.2,16.1,N/A,,Clear,130,2013-09-15 20:35:00
3:55 PM,62.6,41.0,45,30.30,10.0,SE,9.2,-,N/A,,Clear,130,2013-09-15 20:55:00
4:15 PM,62.6,41.0,45,30.29,10.0,ESE,8.1,-,N/A,,Clear,110,2013-09-15 21:15:00
4:35 PM,62.6,41.0,45,30.29,10.0,East,9.2,17.3,N/A,,Clear,100,2013-09-15 21:35:00
4:55 PM,62.6,39.2,42,30.28,10.0,ESE,12.7,16.1,N/A,,Clear,120,2013-09-15 21:55:00
5:15 PM,62.6,39.2,42,30.28,10.0,ESE,13.8,17.3,N/A,,Clear,110,2013-09-15 22:15:00
5:35 PM,62.6,39.2,42,30.29,10.0,ESE,11.5,-,N/A,Rain,Light Rain,120,2013-09-15 22:35:00
5:55 PM,62.6,39.2,42,30.29,10.0,SE,12.7,17.3,N/A,,Clear,130,2013-09-15 22:55:00
6:15 PM,60.8,39.2,45,30.28,10.0,ESE,12.7,-,N/A,,Clear,120,2013-09-15 23:15:00
6:35 PM,60.8,37.4,42,30.28,10.0,SE,12.7,17.3,N/A,,Clear,140,2013-09-15 23:35:00
6:55 PM,59.0,39.2,48,30.28,10.0,SE,12.7,-,N/A,,Clear,130,2013-09-15 23:55:00
7:15 PM,59.0,39.2,48,30.28,10.0,SE,10.4,-,N/A,,Clear,130,2013-09-16 00:15:00
7:35 PM,57.2,41.0,55,30.27,10.0,ESE,8.1,-,N/A,,Clear,120,2013-09-16 00:35:00
7:55 PM,53.6,41.0,62,30.27,10.0,ESE,6.9,-,N/A,,Clear,120,2013-09-16 00:55:00
8:15 PM,50.0,41.0,71,30.27,10.0,ESE,5.8,-,N/A,,Clear,120,2013-09-16 01:15:00
8:35 PM,48.2,42.8,82,30.27,10.0,ESE,5.8,-,N/A,,Clear,120,2013-09-16 01:35:00
8:55 PM,48.2,42.8,82,30.27,10.0,ESE,6.9,-,N/A,,Clear,120,2013-09-16 01:55:00
9:15 PM,46.4,42.8,87,30.26,10.0,ESE,6.9,-,N/A,,Clear,120,2013-09-16 02:15:00
9:35 PM,46.4,42.8,87,30.26,10.0,ESE,8.1,-,N/A,,Clear,120,2013-09-16 02:35:00
9:55 PM,46.4,42.8,87,30.27,10.0,ESE,6.9,-,N/A,,Clear,120,2013-09-16 02:55:00
10:15 PM,44.6,44.6,100,30.27,10.0,ESE,5.8,-,N/A,,Clear,110,2013-09-16 03:15:00
10:35 PM,44.6,44.6,100,30.26,10.0,ESE,5.8,-,N/A,,Clear,110,2013-09-16 03:35:00
10:55 PM,44.6,42.8,93,30.26,10.0,ESE,5.8,-,N/A,,Clear,120,2013-09-16 03:55:00
11:15 PM,46.4,42.8,87,30.26,10.0,SE,6.9,-,N/A,,Unknown,130,2013-09-16 04:15:00
11:35 PM,48.2,42.8,82,30.25,10.0,SE,8.1,-,N/A,,Clear,140,2013-09-16 04:35:00
11:55 PM,46.4,42.8,87,30.25,10.0,SSE,9.2,-,N/A,,Clear,150,2013-09-16 04:55:00